Regional Weather Roundup
Issued by NWS

Home | Current Version | Previous Version | Text Only | Print | Product List | Glossary On
Versions: 1 2 3 4 5 6 7 8 9 10 11 12 13 14 15 16 17 18 19 20 21 22 23 24 25 26 27 28 29 30 31 32 33 34 35 36 37 38 39 40 41 42 43 44 45 46 47 48 49 50
000
ASUS45 KBOI 301410
RWRID

IDAHO REGIONAL WEATHER ROUNDUP
NATIONAL WEATHER SERVICE BOISE ID
800 AM MDT TUE JUN 30 2015

NOTE: "FAIR" INDICATES FEW OR NO CLOUDS BELOW 12000 FEET
WITH NO SIGNIFICANT WEATHER AND/OR OBSTRUCTIONS TO VISIBILITY

IDZ012-014-301500-
SOUTHWEST IDAHO


CITY           SKY/WX    TMP DP  RH WIND       PRES   REMARKS
BOISE          MOSUNNY   77  56  48 SW3       30.02R
CALDWELL       MOSUNNY   79  52  38 W7        30.01R
MOUNTAIN HOME  CLOUDY    79  54  42 SW2       30.03R
$$

IDZ016-017-301500-
SOUTHCENTRAL IDAHO


CITY           SKY/WX    TMP DP  RH WIND       PRES   REMARKS
BURLEY         MOSUNNY   69  59  70 SW3       30.10R
JEROME         MOSUNNY   74  56  53 NE7       30.10R
TWIN FALLS     MOSUNNY   76  52  43 S8        30.08R
$$

IDZ019>023-301500-
SOUTHEAST IDAHO


CITY           SKY/WX    TMP DP  RH WIND       PRES   REMARKS
IDAHO FALLS    MOSUNNY   67  57  70 CALM      30.14R
POCATELLO      SUNNY     71  59  65 N6        30.13S
REXBURG        MOSUNNY   64  56  75 N3        30.16R
$$

IDZ006-010-011-018-031-032-301500-
CENTRAL IDAHO MOUNTAINS


CITY           SKY/WX    TMP DP  RH WIND       PRES   REMARKS
MCCALL         SUNNY     72  51  47 N6        30.17S
HAILEY         PTSUNNY   68  54  60 N7        30.21R
STANLEY          N/A     56  49  77 CALM      30.30S
SALMON         MOSUNNY   63  59  88 N5        30.16R
CHALLIS        SUNNY     65  57  75 CALM      30.21R
$$

IDZ002-004-006-007-026-301500-
NORTHERN IDAHO


CITY           SKY/WX    TMP DP  RH WIND       PRES   REMARKS
LEWISTON       SUNNY     77  61  57 CALM      29.99R
LOWELL           N/A     67  63  87 CALM      30.04R
COEUR D`ALENE  SUNNY     66  59  77 N9        30.03S
MULLAN PASS    SUNNY     63  52  67 CALM      30.22S
$$


USA.gov is the U.S. government's official web portal to all federal, state and local government web resources and services.